[[{"header":{"parameterUnit":"m.s-1","parameterCategory":1,"la1":30.2991,"la2":30.254,"lo1":-89.0895,"lo2":-89.0444,"dy":0.0017,"dx":0.0017,"nx":28,"ny":28,"refTime":"2024-08-12T09:00:00:Z","depth":0,"parameterNumber":2,"parameterNumberName":"U-component_of_WINDS"},"data":[0,0,0,0,0,0,0,0,0,0,0,0,0,0,0,0,0,0,0,0,0,0,0,0,0,0,0,0,0,0,0,0,0,0,0,0,0,0,0,0,0,0,0,0,0,0,0,0,0,0,0,0,0,0,0,0,0,0,3.1435,3.1436,0,3.1475,3.1475,3.1476,3.1383,3.138,3.1377,3.1374,3.142,3.1424,3.1427,0,0,0,0,0,0,0,0,0,0,0,0,0,3.1283,3.1286,3.1435,3.1436,3.1436,3.1475,3.1475,3.1476,3.1384,3.138,3.1376,3.1373,3.1418,3.1423,3.1428,0,0,0,0,0,0,0,0,0,0,0,0,0,3.1338,3.1287,3.1435,3.1395,3.1392,3.1475,3.1475,3.1476,3.1384,3.138,3.1375,3.1371,3.1417,3.1423,3.1428,3.1554,0,0,3.1447,3.1449,0,0,0,0,0,0,0,0,3.1335,3.1344,3.14,3.1398,3.1394,3.1419,3.1438,3.1502,3.1385,3.1387,3.1374,3.1369,3.1424,3.1429,3.1446,3.1556,3.1558,3.1447,3.1451,3.1453,3.1455,0,0,0,0,0,0,0,3.1332,3.1342,3.1451,3.1401,3.1398,3.1375,3.1378,3.145,3.143,3.1387,3.138,3.1386,3.1421,3.144,3.1446,3.1559,3.1447,3.1452,3.1456,3.1458,3.177,3.1774,0,0,0,0,0,0,3.1332,3.1339,3.145,3.1452,3.1353,3.1382,3.1385,3.1416,3.1429,3.1427,3.139,3.1381,3.1432,3.1439,3.1448,3.1592,3.1453,3.1459,3.1462,3.1765,3.1771,3.1776,0,0,0,0,0,0,3.133,3.1343,3.1448,3.1394,3.1406,3.1389,3.1424,3.1419,3.1438,3.1431,3.1427,3.1413,3.1429,3.1439,3.1527,3.1592,3.1462,3.1467,3.176,3.1767,3.1773,3.1884,0,0,0,0,0,0,3.1326,3.1343,3.139,3.1396,3.1409,3.1527,3.1429,3.1423,3.1448,3.1438,3.1452,3.145,3.1426,3.1518,3.1533,3.1598,3.1472,3.1754,3.1763,3.1771,3.1874,3.1894,3.1911,0,0,0,0,0,3.132,3.1422,3.1393,3.1407,3.1467,3.1531,3.1538,3.1508,3.1454,3.1501,3.1496,3.1449,3.1583,3.1528,3.1544,3.1612,3.1749,3.176,3.177,3.1866,3.189,3.191,0,0,0,0,0,0,3.1426,3.1422,3.139,3.1495,3.1514,3.1515,3.1573,3.1535,3.157,3.1559,3.1522,3.1526,3.162,3.1625,3.1564,3.1732,3.1657,3.1671,3.1725,3.1747,3.1765,3.1761,3.1477,0,0,0,0,0,3.1462,3.1512,3.1506,3.16,3.161,3.1591,3.1617,3.1592,3.161,3.1618,3.1619,3.164,3.1686,3.1717,3.176,3.1875,3.1875,3.1929,3.1948,3.1963,3.1975,3.2032,3.2055,3.1811,3.1811,3.181,0,0,3.1536,3.1539,3.1574,3.1621,3.1632,3.1685,3.1598,3.1659,3.1698,3.1628,3.1709,3.1711,3.1731,3.1832,3.1877,3.1839,3.2042,3.1976,3.1988,3.1992,3.2046,3.2069,3.209,3.1818,3.1816,3.1815,0,0,3.1697,3.1706,3.1783,3.1795,3.1812,3.1798,3.1817,3.1823,3.182,3.1901,3.1848,3.1895,3.1977,3.1992,3.201,3.2174,3.2132,3.219,3.2284,3.2341,3.236,3.2377,3.2432,3.2453,3.2202,3.2203,3.2203,0,3.1787,3.1864,3.1829,3.1892,3.1913,3.1849,3.1926,3.1941,3.1972,3.1988,3.1946,3.2043,3.2053,3.2155,3.2194,3.2213,3.2232,3.2187,3.236,3.2377,3.2392,3.2444,3.2466,3.2209,3.2209,3.2208,3.2207,0,3.1973,3.2027,3.2088,3.2115,3.2144,3.2215,3.2189,3.2222,3.2194,3.2184,3.2266,3.2275,3.2316,3.2339,3.2314,3.2437,3.2412,3.2366,3.229,3.2422,3.2471,3.2491,3.2219,3.2216,3.2214,3.2213,0,0,3.2202,3.2207,3.223,3.224,3.2253,3.2295,3.2362,3.24,3.2427,3.2451,3.2505,3.2574,3.2529,3.255,3.2526,3.2577,3.2702,3.2523,3.2523,3.2553,3.2834,3.2867,3.2891,3.2675,3.2678,3.2681,3.2831,0,3.2359,3.2471,3.244,3.2552,3.26,3.254,3.2598,3.2612,3.2604,3.2645,3.2637,3.2684,3.2624,3.2636,3.2683,3.2677,3.2757,3.2666,3.2723,3.2726,3.2717,3.2917,3.2953,3.3094,3.2851,3.2854,3.2856,0,3.2557,3.2584,3.2701,3.2702,3.2721,3.2774,3.2804,3.2844,3.2858,3.2849,3.2871,3.2836,3.2901,3.2826,3.2914,3.2852,3.2874,3.2875,3.288,3.2882,3.2797,3.2922,3.3139,3.3159,3.2886,3.2884,3.2882,0,3.2708,3.2775,3.2852,3.2863,3.2868,3.2905,3.291,3.2919,3.2943,3.2971,3.2985,3.3022,3.3041,3.307,3.3045,3.2992,3.3136,3.306,3.3129,3.313,3.3161,3.3159,3.3381,3.318,3.318,3.3179,3.3179,0,3.2884,3.2957,3.2919,3.2966,3.3046,3.3009,3.3089,3.3086,3.3095,3.3141,3.3093,3.3137,3.3102,3.3143,3.3125,3.3199,3.321,3.3203,3.3197,3.3206,3.3206,3.3218,3.3207,3.3185,3.3184,3.3182,3.3182,0,3.3066,3.3044,3.3123,3.312,3.3121,3.3179,3.3177,3.322,3.3208,3.3266,3.3278,3.326,3.3306,3.3284,3.3333,3.332,3.3415,3.3397,3.3409,3.3403,3.3473,3.3465,3.3709,3.3737,3.352,3.3523,3.3524,0,3.3179,3.3233,3.3234,3.326,3.3266,3.331,3.3332,3.3299,3.3325,3.3344,3.3385,3.3425,3.3456,3.3532,3.3523,3.356,3.354,3.3623,3.3546,3.3552,3.3538,3.3534,3.3538,3.3638,3.3641,3.3643,3.3644,0,3.338,3.3365,3.3399,3.3429,3.3457,3.348,3.3498,3.3522,3.3489,3.352,3.3565,3.3588,3.3636,3.3676,3.3707,3.3712,3.3673,3.3669,3.3686,3.3695,3.3698,3.3694,3.3448,3.3663,3.3661,3.366,3.3659,3.3658,3.3528,3.3572,3.3579,3.3617,3.3627,3.3645,3.3684,3.3676,3.3712,3.3746,3.3724,3.3776,3.3787,3.3824,3.3834,3.3874,3.3841,3.3867,3.3873,3.388,3.3887,3.3694,3.388,3.3879,3.3879,3.3878,3.3878,0,3.3724,3.3724,3.3761,3.3786,3.3816,3.3775,3.3792,3.382,3.3866,3.3879,3.3908,3.3958,3.3997,3.3991,3.4025,3.4059,3.4041,3.4069,3.4064,3.4066,3.3916,3.3896,3.4082,3.4082,3.4082,3.4082,3.4082,3.4082,3.3829,3.3899,3.3885,3.396,3.396,3.4008,3.4021,3.4037,3.4046,3.4103,3.4134,3.4129,3.4134,3.4168,3.4201,3.4198,3.4212,3.4246,3.4237,3.4097,3.4077,3.4057,3.4038,3.425,3.4251,3.4382,3.4383,3.4384]},{"header":{"parameterUnit":"m.s-1","parameterCategory":1,"la1":30.2991,"la2":30.254,"lo1":-89.0895,"lo2":-89.0444,"dy":0.0017,"dx":0.0017,"nx":28,"ny":28,"refTime":"2024-08-12T09:00:00:Z","depth":0,"parameterNumber":3,"parameterNumberName":"V-component_of_WINDS"},"data":[0,0,0,0,0,0,0,0,0,0,0,0,0,0,0,0,0,0,0,0,0,0,0,0,0,0,0,0,0,0,0,0,0,0,0,0,0,0,0,0,0,0,0,0,0,0,0,0,0,0,0,0,0,0,0,0,0,0,4.5108,4.5109,0,4.5171,4.5172,4.5173,4.5129,4.5127,4.5125,4.5123,4.5181,4.5184,4.5188,0,0,0,0,0,0,0,0,0,0,0,0,0,4.4941,4.4944,4.5108,4.5109,4.5109,4.5171,4.5172,4.5173,4.5129,4.5127,4.5125,4.5122,4.518,4.5184,4.5188,0,0,0,0,0,0,0,0,0,0,0,0,0,4.501,4.4945,4.5108,4.5095,4.5095,4.5171,4.5172,4.5173,4.513,4.5127,4.5124,4.5121,4.5179,4.5184,4.5189,4.5278,0,0,4.5204,4.5206,0,0,0,0,0,0,0,0,4.5006,4.5016,4.5096,4.5096,4.5096,4.514,4.5134,4.5208,4.5131,4.5116,4.5123,4.512,4.5169,4.5175,4.5193,4.5281,4.5283,4.5204,4.5208,4.521,4.5211,0,0,0,0,0,0,0,4.5001,4.5013,4.5133,4.5097,4.5097,4.5084,4.5091,4.5148,4.5158,4.5117,4.5114,4.5123,4.5168,4.5188,4.5194,4.5284,4.5204,4.5209,4.5212,4.5214,4.5447,4.545,0,0,0,0,0,0,4.4998,4.5009,4.5131,4.5135,4.5043,4.5089,4.5097,4.5128,4.5157,4.5159,4.5125,4.5121,4.5181,4.5188,4.5196,4.5301,4.521,4.5214,4.5217,4.5444,4.5448,4.5451,0,0,0,0,0,0,4.4995,4.501,4.5128,4.5071,4.5085,4.5095,4.5131,4.5131,4.5151,4.5164,4.5164,4.5144,4.5179,4.5189,4.5258,4.5303,4.5217,4.5221,4.544,4.5445,4.5449,4.5514,0,0,0,0,0,0,4.4991,4.5009,4.5045,4.5072,4.5089,4.5192,4.5134,4.5134,4.5161,4.5155,4.5181,4.5183,4.5177,4.5251,4.5263,4.5308,4.5225,4.5436,4.5442,4.5448,4.5508,4.552,4.5531,0,0,0,0,0,4.4985,4.5059,4.5047,4.5062,4.5134,4.5195,4.5203,4.5198,4.5164,4.5199,4.5207,4.5182,4.5296,4.5258,4.5272,4.5319,4.5433,4.544,4.5447,4.5502,4.5518,4.553,0,0,0,0,0,0,4.5034,4.5063,4.5049,4.5136,4.5163,4.5187,4.5231,4.5214,4.525,4.5243,4.5232,4.5238,4.5311,4.5322,4.5279,4.5406,4.5359,4.5369,4.5396,4.5411,4.5422,4.5417,4.5229,0,0,0,0,0,4.5055,4.5105,4.5126,4.52,4.5215,4.5221,4.5247,4.524,4.5267,4.5278,4.5291,4.5317,4.5358,4.5385,4.5424,4.551,4.5513,4.5548,4.556,4.5569,4.5577,4.5622,4.5637,4.5474,4.5474,4.5474,0,0,4.5099,4.5121,4.5152,4.521,4.5231,4.5279,4.5231,4.5284,4.5319,4.5285,4.5352,4.5363,4.539,4.5468,4.5502,4.5479,4.5624,4.5578,4.5586,4.5589,4.563,4.5646,4.5659,4.5479,4.5478,4.5478,0,0,4.5203,4.5226,4.5289,4.5311,4.5344,4.5348,4.5363,4.539,4.5396,4.5464,4.5439,4.5479,4.5551,4.5571,4.5591,4.5703,4.568,4.5716,4.5775,4.5818,4.5831,4.5842,4.588,4.5894,4.5724,4.5724,4.5724,0,4.5252,4.5327,4.5323,4.5379,4.5404,4.5378,4.544,4.5461,4.5504,4.5521,4.5495,4.5585,4.5601,4.5682,4.571,4.5727,4.5742,4.5712,4.583,4.5841,4.5852,4.5887,4.5902,4.5728,4.5728,4.5727,4.5727,0,4.5385,4.5437,4.5484,4.5528,4.5559,4.5618,4.562,4.5651,4.5642,4.5647,4.5715,4.5734,4.5776,4.5795,4.5786,4.5875,4.5859,4.5832,4.5784,4.5871,4.5904,4.5918,4.5734,4.5733,4.5731,4.573,0,0,4.552,4.5563,4.558,4.5599,4.5634,4.5672,4.5729,4.5772,4.5798,4.5829,4.5874,4.5936,4.5911,4.5933,4.5926,4.5964,4.6049,4.5932,4.5932,4.5951,4.6146,4.6164,4.618,4.6035,4.6038,4.604,4.6142,0,4.5624,4.5726,4.5724,4.5817,4.5864,4.584,4.5889,4.5914,4.5921,4.5959,4.5965,4.6009,4.5974,4.5987,4.6024,4.6031,4.6088,4.6024,4.6074,4.6076,4.6067,4.6198,4.6218,4.6314,4.6156,4.6158,4.616,0,4.576,4.5797,4.5896,4.5923,4.5942,4.5987,4.6025,4.6064,4.6091,4.6092,4.6118,4.6105,4.6159,4.6112,4.6185,4.6142,4.6163,4.6169,4.6173,4.6175,4.6122,4.6202,4.6345,4.6358,4.6181,4.6179,4.6177,0,4.5846,4.5921,4.5989,4.6007,4.6041,4.6072,4.6087,4.6112,4.6137,4.6171,4.6187,4.6225,4.6246,4.6275,4.6271,4.6237,4.6345,4.6298,4.6346,4.6346,4.6368,4.6366,4.6513,4.6385,4.6385,4.6385,4.6384,0,4.5961,4.6022,4.6028,4.607,4.6136,4.6133,4.6198,4.6209,4.6231,4.6272,4.6254,4.6293,4.6287,4.6325,4.6322,4.6383,4.6392,4.6393,4.6392,4.6394,4.6394,4.6406,4.6398,4.6388,4.6388,4.6387,4.6386,0,4.6068,4.6075,4.6148,4.6175,4.6183,4.623,4.6252,4.629,4.6296,4.6348,4.636,4.6368,4.6412,4.6412,4.6462,4.646,4.6533,4.6525,4.6525,4.6522,4.657,4.6564,4.6728,4.6748,4.6609,4.661,4.6611,0,4.614,4.6187,4.6219,4.6247,4.6265,4.631,4.6336,4.6334,4.6362,4.6397,4.643,4.6473,4.6507,4.6578,4.6586,4.6624,4.6614,4.6669,4.662,4.662,4.6613,4.6609,4.6613,4.6678,4.668,4.6681,4.6682,0,4.6267,4.6268,4.6309,4.6352,4.6385,4.6417,4.6447,4.647,4.647,4.6502,4.6549,4.6575,4.6627,4.6669,4.6705,4.6717,4.6699,4.6698,4.6711,4.6712,4.671,4.671,4.6549,4.6694,4.6692,4.6692,4.6691,4.6691,4.6357,4.6397,4.6426,4.6471,4.6494,4.6523,4.656,4.6571,4.661,4.6654,4.6649,4.67,4.6724,4.6772,4.6788,4.6825,4.6806,4.6825,4.6829,4.6833,4.6838,4.6706,4.6832,4.6832,4.6831,4.6831,4.6831,0,4.6481,4.6499,4.6541,4.6585,4.662,4.6603,4.6635,4.6665,4.6711,4.6736,4.6771,4.6823,4.6863,4.6876,4.6914,4.6942,4.6934,4.6952,4.6948,4.6951,4.6854,4.6838,4.6957,4.6957,4.6957,4.6957,4.6957,4.6957,4.6549,4.6615,4.662,4.6696,4.6713,4.6764,4.6784,4.6809,4.6829,4.6889,4.6923,4.6932,4.6952,4.6992,4.7027,4.703,4.7044,4.7064,4.7063,4.6971,4.6958,4.6946,4.6931,4.7068,4.7068,4.7157,4.7158,4.7158]}]]